Regional Weather Roundup
Issued by NWS Charleston, SC

Current Version | Previous Version | Graphics & Text | Print | Product List | Glossary Off
Versions: 1 2 3 4 5 6 7 8 9 10 11 12 13 14 15 16 17 18 19 20 21 22 23 24 25 26 27 28 29 30 31 32 33 34 35 36 37 38 39 40 41 42 43 44 45 46 47 48 49 50

000
ASUS42 KCHS 271025
RWRCHS

REGIONAL WEATHER ROUNDUP
NATIONAL WEATHER SERVICE CHARLESTON SC
500 AM EST THU NOV 27 2014

NOTE: "FAIR" INDICATES FEW OR NO CLOUDS BELOW 12,000 FEET WITH NO
SIGNIFICANT WEATHER AND/OR OBSTRUCTIONS TO VISIBILITY.

NOT ALL STATIONS ARE QUALITY CONTROLLED BY THE NATIONAL
WEATHER SERVICE. USE DATA WITH CAUTION...ESPECIALLY
DEWPOINT OBSERVATIONS.

SCZ027-030-031-034>040-042>050-271100-
...SOUTHEAST SOUTH CAROLINA...

CITY           SKY/WX    TMP DP  RH WIND       PRES   REMARKS
N CHARLESTON   CLEAR     42  36  79 SW6       30.08F
WATERFRONT PRK   N/A     48 N/A N/A SW6         N/A
MOUNT PLEASANT FAIR      45  37  76 S6        30.09S
JOHNS ISLAND   SUNNY     46  45  93 SW5       30.10S
PINOPOLIS        N/A     46  37  71 SW8       29.97F
MONCKS CORNER  FAIR      41  39  93 CALM      30.06F
SUMMERVILLE    PTSUNNY   41  37  87 SW8       30.09R
BEAUFORT MCAS  CLEAR     47  36  65 SW13      30.11S
BEAUFORT ARPT  FAIR      50  37  62 SW16G22   30.11S
HILTON HEAD IS NOT AVBL
WALTERBORO     MOSUNNY   45  34  65 SW9       30.10S
ALLENDALE      FAIR      43  36  75 VRB5      30.09R

...SOUTHERN MIDLANDS AND PEE DEE...

CITY           SKY/WX    TMP DP  RH WIND       PRES   REMARKS
GEORGETOWN     NOT AVBL
KINGSTREE      NOT AVBL
ORANGEBURG     CLEAR     40  34  79 SW9       30.05F WCI  34
BARNWELL       FAIR      41  36  81 SW5       30.08S
AIKEN          FAIR      43  32  65 SW9       30.08R
MANNING        NOT AVBL
COLUMBIA       CLEAR     43  32  65 SW9       30.02S
SUMTER         CLEAR     41  35  78 SW9       30.01F
FLORENCE       CLOUDY    42  38  85 S9        30.02F
MYRTLE BEACH   MOCLDY    43  37  81 SW6       30.06F
N MYRTLE BEACH MOCLDY    45  37  73 W7        30.06F

$$

GAZ063-065-086>088-099>101-113>116-118-119-134>141-150-271100-
...SOUTHEAST GEORGIA...

CITY           SKY/WX    TMP DP  RH WIND       PRES   REMARKS
SAVANNAH ARPT  CLEAR     46  35  65 SW12      30.14R
HUNTER AAF     CLEAR     46  36  68 SW12      30.13R
FORT STEWART   CLEAR     42  36  79 SW8       30.15R
STATESBORO     NOT AVBL
SYLVANIA       SUNNY     47  38  73 W6        30.13R
CLAXTON        FAIR      46  21  36 W7        30.15R

...CSRA...CENTRAL AND FAR SOUTHEAST GEORGIA...

CITY           SKY/WX    TMP DP  RH WIND       PRES   REMARKS
THOMSON        CLEAR     43  37  80 W5        30.13S
AUGUSTA-BUSH   CLEAR     42  32  67 SW9       30.08R
AUGUSTA-DANIEL CLEAR     47  31  53 W8        30.07S
SWAINSBORO     FAIR      45  37  76 W7        30.14S
VIDALIA        CLEAR     45  37  76 W5        30.16R
HAZLEHURST     FAIR      47  41  79 W5        30.17R
ALMA           CLEAR     43  36  76 W3        30.17R
WAYCROSS       CLEAR     48  41  75 W9        30.18R
JESUP          FAIR      39  37  93 CALM      30.18R
BAXLEY         FAIR      46  37  71 W3        30.17R
BRUNSWICK      CLEAR     46  36  66 W10       30.18R
SAINT SIMONS   CLEAR     47  36  65 SW9       30.17S

$$

SCZ027-028-034-036>038-045-046-048>050-GAZ119-141-271100-
...LAKE AND SUPPLEMENTAL COASTAL OBSERVATIONS...

STATION/POSITION TIME  TEMP    WIND        PRES    WAVE   SWELL
                       AIR SEA DIR/SP/G            HT/PER HT/PER/DIR
                 (UTC) (F)     (DEG/KT/KT) (MB)    (FT/S) (FT/S/D)
UPR LAKE MARION  NOT AVBL
WINYAH BAY       1000   43     250/  4     1018.0S
LAKE MURRAY      1000   49     250/ 15/ 20 1015.6S
ACE BASIN NERRS  1000   47        CALM     1019.0S
FORT PULASKI     1000   49     240/ 11/ 18 1020.7R
SAPELO ISLAND    1000   49     230/ 10     1021.0S

$$

ANZ835-935-AMZ111-154-330-350-352-354-370-450-454-472-271100-
...C-MAN AND BUOY OBSERVATIONS...

STATION/POSITION TIME  TEMP    WIND        PRES    WAVE   SWELL
                       AIR SEA DIR/SP/G            HT/PER HT/PER/DIR
                 (UTC) (F)     (DEG/KT/KT) (MB)    (FT/S) (FT/S/D)
FOLLY BEACH CMAN 1000   51     240/  7/ 11 1019.3F
BUOY 41004       1000   61 74  250/ 17/ 21 1018.4F   4/ 5   2/ 9
BUOY 41008       1000   58 64  250/ 19/ 21 1020.7F   3/ 4   2/140/ 9
CAPERS NEARSHORE 0900   54     260/ 17/ 19   N/A
FRIPP NEARSHORE  NOT AVBL


STATION/POSITION TIME  TEMP    WIND        PRES    WAVE   SWELL
                       AIR SEA DIR/SP/G            HT/PER HT/PER/DIR
                 (UTC) (F)     (DEG/KT/KT) (MB)    (FT/S) (FT/S/D)
5E ST. MARYS GA  1000      61                N/A     2/ 9
FRYING PAN BUOY  1000   58 70  270/ 16/ 21 1018.5F   4/ 7   2/140/ 8
BUOY 41025       1000   47     300/ 10/ 16 1018.6F   7/ 8   7/160/ 8
CAPE LOOKOUT NC  1000   46     190/  3/  3 1018.5F
BUOY 41002       0852   66 73  300/ 17/ 21 1019.4R  10/ 8   7/270/ 8
BUOY 41010       1000   69 78  320/ 16/ 19 1021.5R   6/ 8   5/ 10/ 8
ST AUGUSTINE FL  1000   46     250/  7/  8 1023.7R


$$


USA.gov is the U.S. government's official web portal to all federal, state and local government web resources and services.